This demonstration page uses our WeatherBlox Daily Observations layout. Learn more.

39.08367, -84.50855

Hourly Observations for September 22, 2019

Temp ( °F °C ) Dew Point ( °F °C ) Humidity (%) Winds ( mph kmh ) Pressure ( in mb ) Visibility ( mi km ) Precip ( " mm )
12:53 am 00:53 Clear 66 18.9 64 17.8 93 93 Calm 30.12 1020 7 11.265408 0 0
1:53 am 01:53 Clear with Mist and Fog 65 18.3 64 17.8 97 97 Calm 30.12 1020 4 6.437376 0 0
2:11 am 02:11 Clear with Mist and Fog 64 17.8 64 17.8 100 100 Calm 30.12 1020 2.5 4.02336 0 0
2:21 am 02:21 Clear with Mist and Fog 64 17.8 64 17.8 100 100 Calm 30.12 1020 3 4.828032 0 0
2:29 am 02:29 Clear with Mist and Fog 64 17.8 64 17.8 100 100 Calm 30.12 1020 2.5 4.02336 0 0
2:53 am 02:53 Clear with Mist and Fog 64 17.8 64 17.8 100 100 Calm 30.12 1020 2.5 4.02336 0 0
3:09 am 03:09 Clear with Mist and Fog 64 17.8 64 17.8 100 100 Calm 30.12 1020 1.25 2.01168 0 0
3:20 am 03:20 Clear with Mist and Fog 64 17.8 63 17.2 96 96 Calm 30.12 1020 2.5 4.02336 0 0
3:31 am 03:31 Clear with Mist and Fog 64 17.8 63 17.2 96 96 Calm 30.12 1020 3 4.828032 0 0
3:53 am 03:53 Clear with Mist and Fog 63 17.2 63 17.2 100 100 Calm 30.12 1020 4 6.437376 0 0
3:58 am 03:58 Clear with Mist and Fog 64 17.8 63 17.2 96 96 Calm 30.12 1020 1.5 2.414016 0 0
4:13 am 04:13 Clear with Mist and Fog 63 17.2 63 17.2 100 100 Calm 30.12 1020 3 4.828032 0 0
4:25 am 04:25 Clear with Mist and Fog 63 17.2 63 17.2 100 100 Calm 30.12 1020 2.5 4.02336 0 0
4:34 am 04:34 Clear with Mist and Fog 63 17.2 63 17.2 100 100 Calm 30.12 1020 1 1.609344 0 0
4:40 am 04:40 Clear with Mist and Fog 63 17.2 63 17.2 100 100 Calm 30.12 1020 3 4.828032 0 0
4:53 am 04:53 Clear with Mist and Fog 64 17.8 63 17.2 96 96 Calm 30.12 1020 5 8.04672 0 0
5:53 am 05:53 Clear with Mist and Fog 64 17.8 63 17.2 96 96 Calm 30.12 1020 4 6.437376 0 0
6:02 am 06:02 Clear with Mist and Fog 63 17.2 63 17.2 100 100 Calm 30.12 1020 1.5 2.414016 0 0
6:10 am 06:10 Clear with Fog 62 16.7 62 16.7 100 100 Calm 30.12 1020 0.25 0.402336 0 0
6:20 am 06:20 Mostly Cloudy with Fog 62 16.7 61 16.1 96 96 Calm 30.12 1020 0.25 0.402336 0 0
6:28 am 06:28 Mostly Clear with Mist and Fog 61 16.1 61 16.1 100 100 Calm 30.12 1020 1.25 2.01168 0 0
6:30 am 06:30 Mostly Clear with Mist and Fog 61 16.1 61 16.1 100 100 Calm 30.12 1020 4 6.437376 0 0
6:38 am 06:38 Mostly Cloudy with Mist and Fog 62 16.7 62 16.7 100 100 Calm 30.12 1020 0.75 1.207008 0 0
6:45 am 06:45 Clear with Fog 62 16.7 62 16.7 100 100 Calm 30.12 1020 0.25 0.402336 0 0
6:53 am 06:53 Mostly Clear with Patchy Fog 62 16.7 61 16.1 96 96 Calm 30.12 1020 6 9.656064 0 0
7:53 am 07:53 Partly Cloudy with Patchy Fog 62 16.7 62 16.7 100 100 Calm 30.12 1020 6 9.656064 0 0
8:53 am 08:53 Sunny 66 18.9 65 18.3 96 96 Calm 30.12 1020 10 16.09344 0 0
9:53 am 09:53 Sunny 72 22.2 62 16.7 71 71 S 5 7 30.12 1020 10 16.09344 0 0
10:53 am 10:53 Sunny 78 25.6 62 16.7 58 58 S 5 7 30.12 1020 10 16.09344 0 0
11:53 am 11:53 Sunny 85 29.4 60 15.6 43 43 SSW 14 22 30.09 1019 10 16.09344 0 0
12:53 pm 12:53 Sunny 86 30 59 15 40 40 SSW 15 24 30.06 1018 10 16.09344 0 0
1:53 pm 13:53 Sunny 88 31.1 58 14.4 36 36 SSW 21 33 30.03 1017 10 16.09344 0 0
2:53 pm 14:53 Sunny 88 31.1 57 13.9 35 35 SW 12 19 30 1016 10 16.09344 0 0
3:53 pm 15:53 Mostly Sunny 89 31.7 58 14.4 35 35 SW 12 19 29.97 1015 10 16.09344 0 0
4:53 pm 16:53 Sunny 87 30.6 58 14.4 37 37 SSW 13 20 29.97 1015 10 16.09344 0 0
5:53 pm 17:53 Sunny 85 29.4 58 14.4 40 40 SSW 14 22 29.94 1014 10 16.09344 0 0
6:53 pm 18:53 Sunny 82 27.8 58 14.4 44 44 S 9 15 29.94 1014 10 16.09344 0 0
7:53 pm 19:53 Clear 75 23.9 59 15 58 58 S 7 11 29.94 1014 10 16.09344 0 0
8:53 pm 20:53 Clear 74 23.3 61 16.1 64 64 SW 3 6 29.97 1015 10 16.09344 0 0
9:53 pm 21:53 Clear 75 23.9 57 13.9 54 54 SSW 12 19 29.97 1015 10 16.09344 0 0
10:53 pm 22:53 Clear 78 25.6 56 13.3 47 47 SSW 12 19 29.97 1015 10 16.09344 0 0
11:53 pm 23:53 Clear 75 23.9 57 13.9 54 54 SSW 9 15 29.97 1015 10 16.09344 0 0

Powered by AerisWeather